Monument Pass, CO

1:29 AM MDT on July 24, 2017 (GMT -0600)
Monument Pass

Weather History for KMNH - April, 2014

Change the Weather History Date:

Wednesday, April 16, 2014

  Actual Average Record
Temperature  
Mean Temperature 37 °F -  
Max Temperature 46 °F - 71 °F (2006)
Min Temperature 28 °F - 23 °F (2013)
Degree Days  
Heating Degree Days 28    
Month to date heating degree days  
Cooling Degree Days 0    
Month to date cooling degree days  
Moisture  
Dew Point 22 °F    
Average Humidity 60    
Maximum Humidity 100    
Minimum Humidity 32    
Precipitation  
Precipitation 0.00 in - 0.19 in (2015)
Sea Level Pressure  
Sea Level Pressure 29.91 in    
Wind  
Wind Speed 10 mph (ENE)    
Max Wind Speed 18 mph    
Max Gust Speed 25 mph    
Visibility 10 miles    
Events Snow    
T = Trace of Precipitation, MM = Missing Value Source: NWS Daily Summary

Daily Weather History Graph

Daily Weather History Graph

Search for Another Location

Airport or City:

Trip Planner

Search our weather history database for the weather conditions in past years. The results will help you decide how hot, cold, wet, or windy it might be!

Date:

Astronomy

Apr. 16, 2014 Rise Set
Actual Time 6:20 AM MDT 7:37 PM MDT
Civil Twilight 5:52 AM MDT 8:04 PM MDT
Nautical Twilight 5:19 AM MDT 8:38 PM MDT
Astronomical Twilight 4:44 AM MDT 9:13 PM MDT
Moon 9:22 PM MDT (4/16) 7:09 AM MDT (4/16)
Length of Visible Light 14h 12m
Length of Day
13h 16m
Full, 98% of the Moon is Illuminated
Apr 16
Full
Apr 22
Last Quarter
Apr 29
New
May 6
First Quarter
May 14
Full

Hourly Weather History & Observations

Time (MDT) Temp. Windchill Dew Point Humidity Pressure Visibility Wind Dir Wind Speed Gust Speed Precip Events Conditions
12:15 AM 35.6 °F 27.1 °F 17.6 °F 48% 29.75 in 10.0 mi WSW 12.7 mph - N/A   Clear
12:35 AM 35.6 °F 28.0 °F 17.6 °F 48% 29.75 in 10.0 mi WSW 10.4 mph - N/A   Clear
12:55 AM 35.6 °F 28.6 °F 15.8 °F 44% 29.75 in 10.0 mi WSW 9.2 mph - N/A   Clear
1:15 AM 37.4 °F 30.3 °F 15.8 °F 41% 29.75 in 10.0 mi WSW 10.4 mph - N/A   Clear
1:34 AM 37.4 °F 30.3 °F 15.8 °F 41% 29.75 in 10.0 mi WSW 10.4 mph - N/A   Clear
1:55 AM 39.2 °F 33.6 °F 14.0 °F 36% 29.74 in 10.0 mi WSW 8.1 mph - N/A   Clear
2:15 AM 37.4 °F 31.4 °F 14.0 °F 38% 29.74 in 10.0 mi SW 8.1 mph - N/A   Clear
2:35 AM 35.6 °F 28.6 °F 17.6 °F 48% 29.75 in 10.0 mi WSW 9.2 mph - N/A   Clear
2:55 AM 33.8 °F 27.0 °F 19.4 °F 56% 29.75 in 10.0 mi WSW 8.1 mph - N/A   Clear
3:15 AM 35.6 °F 29.2 °F 15.8 °F 44% 29.75 in 10.0 mi WSW 8.1 mph - N/A   Clear
3:35 AM 37.4 °F 32.8 °F 14.0 °F 38% 29.76 in 10.0 mi WSW 5.8 mph - N/A   Clear
3:55 AM 41.0 °F 37.1 °F 14.0 °F 33% 29.76 in 10.0 mi SW 5.8 mph - N/A   Clear
4:15 AM 39.2 °F 35.0 °F 14.0 °F 36% 29.76 in 10.0 mi WNW 5.8 mph - N/A   Clear
4:34 AM 33.8 °F 25.8 °F 24.8 °F 70% 29.78 in 10.0 mi NNE 10.4 mph - N/A   Clear
4:55 AM 32.0 °F 26.4 °F 26.6 °F 80% 29.78 in 10.0 mi NE 5.8 mph - N/A   Clear
5:15 AM 32.0 °F 28.7 °F 26.6 °F 80% 29.79 in 10.0 mi East 3.5 mph - N/A   Clear
5:34 AM 32.0 °F - 26.6 °F 80% 29.79 in 10.0 mi Calm Calm - N/A   Clear
5:55 AM 28.4 °F - 24.8 °F 86% 29.80 in 10.0 mi Calm Calm - N/A   Clear
6:15 AM 28.4 °F 24.6 °F 26.6 °F 93% 29.82 in 10.0 mi East 3.5 mph - N/A   Clear
6:35 AM 32.0 °F 25.6 °F 26.6 °F 80% 29.83 in 10.0 mi NNE 6.9 mph - N/A   Clear
6:55 AM 32.0 °F 24.8 °F 26.6 °F 80% 29.84 in 10.0 mi North 8.1 mph - N/A   Clear
7:15 AM 33.8 °F 24.8 °F 23.0 °F 65% 29.85 in 10.0 mi NNW 12.7 mph - N/A   Clear
7:34 AM 33.8 °F 25.3 °F 21.2 °F 60% 29.86 in 10.0 mi North 11.5 mph - N/A   Clear
7:54 AM 37.4 °F 30.3 °F 21.2 °F 52% 29.86 in 10.0 mi NNW 10.4 mph - N/A   Clear
8:15 AM 39.2 °F 30.2 °F 17.6 °F 42% 29.86 in 10.0 mi NNW 17.3 mph 21.9 mph N/A   Clear
8:35 AM 41.0 °F 32.2 °F 15.8 °F 36% 29.86 in 10.0 mi NNW 18.4 mph 23.0 mph N/A   Clear
8:55 AM 41.0 °F 33.9 °F 17.6 °F 39% 29.87 in 10.0 mi North 12.7 mph 21.9 mph N/A   Clear
9:15 AM 41.0 °F 33.5 °F 15.8 °F 36% 29.88 in 10.0 mi North 13.8 mph 20.7 mph N/A   Clear
9:35 AM 41.0 °F 33.5 °F 14.0 °F 33% 29.89 in 10.0 mi North 13.8 mph 20.7 mph N/A   Clear
9:55 AM 41.0 °F 33.1 °F 19.4 °F 42% 29.89 in 10.0 mi NNE 15.0 mph 20.7 mph N/A   Clear
10:15 AM 42.8 °F 35.8 °F 19.4 °F 39% 29.90 in 10.0 mi North 13.8 mph 20.7 mph N/A   Clear
10:35 AM 42.8 °F 36.2 °F 19.4 °F 39% 29.91 in 10.0 mi North 12.7 mph 21.9 mph N/A   Clear
10:55 AM 42.8 °F 35.4 °F 21.2 °F 42% 29.92 in 10.0 mi NNE 15.0 mph 21.9 mph N/A   Clear
11:15 AM 42.8 °F 37.5 °F 23.0 °F 46% 29.92 in 10.0 mi North 9.2 mph 18.4 mph N/A   Clear
11:35 AM 42.8 °F 35.4 °F 21.2 °F 42% 29.91 in 10.0 mi NNE 15.0 mph 20.7 mph N/A   Clear
11:55 AM 42.8 °F 35.8 °F 19.4 °F 39% 29.91 in 10.0 mi NNE 13.8 mph 21.9 mph N/A   Clear
12:14 PM 44.6 °F 38.4 °F 21.2 °F 39% 29.91 in 10.0 mi NNE 12.7 mph 19.6 mph N/A   Clear
12:34 PM 46.4 °F 40.7 °F 19.4 °F 34% 29.91 in 10.0 mi North 12.7 mph 20.7 mph N/A   Clear
12:55 PM 46.4 °F 40.7 °F 17.6 °F 32% 29.91 in 10.0 mi NE 12.7 mph 21.9 mph N/A   Clear
1:15 PM 44.6 °F 36.9 °F 17.6 °F 34% 29.91 in 10.0 mi NNE 18.4 mph 25.3 mph N/A   Clear
1:35 PM 44.6 °F 37.2 °F 17.6 °F 34% 29.91 in 10.0 mi North 17.3 mph 24.2 mph N/A   Clear
1:55 PM 42.8 °F 37.5 °F 17.6 °F 36% 29.93 in 10.0 mi NE 9.2 mph 19.6 mph N/A   Mostly Cloudy
2:15 PM 42.8 °F 36.6 °F 17.6 °F 36% 29.94 in 10.0 mi NE 11.5 mph 18.4 mph N/A   Overcast
2:35 PM 42.8 °F 36.2 °F 17.6 °F 36% 29.95 in 10.0 mi NE 12.7 mph - N/A   Overcast
2:55 PM 42.8 °F 37.5 °F 17.6 °F 36% 29.95 in 10.0 mi NE 9.2 mph - N/A   Overcast
3:15 PM 42.8 °F 37.0 °F 19.4 °F 39% 29.95 in 10.0 mi NNE 10.4 mph - N/A   Overcast
3:35 PM 41.0 °F 38.0 °F 17.6 °F 39% 29.95 in 10.0 mi ESE 4.6 mph - N/A   Overcast
3:55 PM 41.0 °F 39.0 °F 17.6 °F 39% - 10.0 mi South 3.5 mph - N/A   Overcast
4:15 PM 41.0 °F 36.4 °F 17.6 °F 39% 29.96 in 10.0 mi NNE 6.9 mph - N/A   Overcast
4:35 PM 39.2 °F - 19.4 °F 45% 29.97 in 10.0 mi Calm Calm - N/A   Overcast
4:55 PM 39.2 °F 34.2 °F 21.2 °F 49% 29.97 in 10.0 mi East 6.9 mph - N/A   Overcast
5:15 PM 39.2 °F 35.9 °F 21.2 °F 49% 29.98 in 10.0 mi East 4.6 mph - N/A   Overcast
5:35 PM 37.4 °F 30.8 °F 26.6 °F 65% 29.99 in 10.0 mi SSE 9.2 mph - N/A   Overcast
5:55 PM 35.6 °F 25.9 °F 28.4 °F 75% 29.99 in 10.0 mi SE 16.1 mph - N/A   Overcast
6:15 PM 33.8 °F 24.8 °F 28.4 °F 81% 30.01 in 10.0 mi SSE 12.7 mph - N/A   Overcast
6:35 PM 32.0 °F 22.5 °F 30.2 °F 93% 30.02 in 10.0 mi SSE 12.7 mph - N/A   Overcast
6:55 PM 32.0 °F 22.5 °F 30.2 °F 93% 30.03 in 7.0 mi SSE 12.7 mph - N/A Snow Light Snow
7:15 PM 32.0 °F 22.1 °F 30.2 °F 93% 30.04 in 10.0 mi SSE 13.8 mph - N/A   Overcast
7:34 PM 32.0 °F 23.0 °F 30.2 °F 93% 30.05 in 10.0 mi SSE 11.5 mph - N/A Snow Light Snow
7:55 PM 32.0 °F 23.6 °F 30.2 °F 93% 30.06 in 10.0 mi SSE 10.4 mph - N/A   Overcast
8:15 PM 32.0 °F 23.6 °F 30.2 °F 93% 30.07 in 10.0 mi SSE 10.4 mph - N/A   Overcast
8:35 PM 32.0 °F 23.6 °F 30.2 °F 93% 30.08 in 10.0 mi SSE 10.4 mph - N/A Snow Light Snow
8:55 PM 32.0 °F 24.2 °F 30.2 °F 93% 30.09 in 10.0 mi SSE 9.2 mph - N/A   Overcast
9:15 PM 32.0 °F 23.6 °F 30.2 °F 93% 30.10 in 10.0 mi South 10.4 mph - N/A   Overcast
9:35 PM 32.0 °F 23.6 °F 30.2 °F 93% 30.10 in 10.0 mi South 10.4 mph - N/A Snow Light Snow
9:54 PM 32.0 °F 24.2 °F 30.2 °F 93% 30.11 in 10.0 mi South 9.2 mph - N/A   Overcast
10:15 PM 32.0 °F 25.6 °F 30.2 °F 93% 30.10 in 10.0 mi South 6.9 mph - N/A   Overcast
10:35 PM 32.0 °F 24.8 °F 30.2 °F 93% 30.10 in 10.0 mi South 8.1 mph - N/A   Overcast
10:55 PM 30.2 °F 23.4 °F 30.2 °F 100% 30.10 in 10.0 mi South 6.9 mph - N/A   Overcast
11:15 PM 30.2 °F 24.3 °F 30.2 °F 100% 30.09 in 10.0 mi SSW 5.8 mph - N/A   Overcast
11:35 PM 30.2 °F 23.4 °F 30.2 °F 100% 30.09 in 10.0 mi SSW 6.9 mph - N/A   Overcast
11:55 PM 30.2 °F 24.3 °F 30.2 °F 100% 30.10 in 10.0 mi SSW 5.8 mph - N/A   Overcast